Lexington Weather

Lexington, Massachusetts, USA

70°F
8/17/2022 6:09pm 
  • Lexington Conditions: Overcast
  • Temperature: 70.3°F / 21.3°CColder 0.6°F than last hour.
  • Dew Point: 59.4°FIncreased 1.3°Fsince last hour.
  • Relative Humidity: 68%Increased 4.0% since last hour.
  • Wind: Calm, 10-min avg: Calm, gust: None
  • Barometer: 29.86 in Steady
  • Visibility: 10 miles
  • Rain Today: 0.00 in
  •   

Regional Weather Roundup
for Boston, MA

        
000
ASUS41 KBOX 151010
RWRBOX

REGIONAL WEATHER ROUNDUP
NATIONAL WEATHER SERVICE BOSTON/NORTON MA
600 AM EDT MON AUG 15 2022

NOTE:  "FAIR" INDICATES FEW OR NO CLOUDS BELOW 12,000 FEET WITH NO 
SIGNIFICANT WEATHER AND/OR OBSTRUCTIONS TO VISIBILITY.

MAZALL-151100-
EASTERN MASSACHUSETTS
  
CITY           SKY/WX    TMP DP  RH WIND       PRES   REMARKS
BOSTON         PTCLDY    63  55  75 CALM      30.01S                  
BEVERLY        CLEAR     55  54  96 CALM      30.01R                  
LAWRENCE       CLEAR     57  53  86 CALM      30.04R                  
BEDFORD        CLEAR     53  50  89 CALM      30.01R                  
BLUE HILL      NOT AVBL                                               
NORWOOD        FOG       52  48  86 CALM      30.02R VSB 1/4          
MARSHFIELD     CLEAR     57  55  94 CALM      30.01R                  
PLYMOUTH       CLEAR     57  55  93 CALM      30.02S                  
TAUNTON          N/A    N/A N/A N/A MISG      30.01S                  
NEW BEDFORD    CLEAR     56  55  97 CALM      30.01S                  
$$

MAZALL-151100-
CAPE COD AND THE ISLANDS
  
CITY           SKY/WX    TMP DP  RH WIND       PRES   REMARKS
FALMOUTH       CLEAR     54  54 100 CALM      30.02S                  
HYANNIS        CLEAR     55  52  89 CALM      30.01S                  
CHATHAM        CLEAR     64  60  87 CALM      30.03S                  
NANTUCKET      CLEAR     61  60  97 E6        30.02F                  
MARTHAS VNYRD  PTCLDY    48  47  96 CALM      30.02S FOG              
$$
 
MAZALL-151100-
CENTRAL AND WESTERN MASSACHUSETTS
  
CITY           SKY/WX    TMP DP  RH WIND       PRES   REMARKS
WORCESTER      CLEAR     63  52  67 NW10      30.03S                  
FITCHBURG      CLEAR     58  51  78 CALM      30.03R                  
ORANGE         CLEAR     52  50  93 CALM      30.05S                  
SPRINGFIELD    CLEAR     53  51  94 NE3       30.00S                  
WESTFIELD      CLEAR     55  52  89 N5        30.03                   
NORTH ADAMS    PTCLDY    51  50  96 CALM      30.05S                  
PITTSFIELD     PTCLDY    51  50  96 CALM      30.04R                  
$$
 
RIZALL-151100-
RHODE ISLAND
  
CITY           SKY/WX    TMP DP  RH WIND       PRES   REMARKS
PROVIDENCE     CLEAR     64  54  69 NW3       30.02S                  
NEWPORT        CLEAR     58  56  93 CALM      30.01S                  
BLOCK ISLAND   CLEAR     60  57  89 CALM      30.03R                  
SMITHFIELD     CLEAR     56  54  93 CALM      30.03R                  
WESTERLY       CLEAR     58  56  93 CALM      30.02R                  
$$
 
CTZALL-151100-
CONNECTICUT
  
CITY           SKY/WX    TMP DP  RH WIND       PRES   REMARKS
BRADLEY INTL   PTCLDY    56  53  90 NE5       30.02S                  
HARTFORD       CLEAR     59  56  89 CALM      30.01S                  
BRIDGEPORT     PTCLDY    63  58  83 N3        30.01R                  
DANBURY        CLEAR     57  54  89 SW3       30.04R                  
GROTON         CLEAR     61  56  83 N3        30.01S                  
NEW HAVEN      CLEAR     63  59  87 CALM      30.02R                  
CHESTER        MOCLDY    61  59  94 CALM      30.03R                  
MERIDEN        CLEAR     56  53  90 CALM      30.02R                  
WILLIMANTIC    CLEAR     55  53  93 CALM      30.04R                  
OXFORD         CLEAR     57  56  96 N5        30.03F                  
$$

MEZ002-015-021-024-NHZ003-005-008-011-012-014-VTZ005-008-151100-
NORTHERN NEW ENGLAND
  
CITY           SKY/WX    TMP DP  RH WIND       PRES   REMARKS
PORTLAND ME    PTCLDY    55  53  93 N6        30.03R                  
BANGOR ME      PTCLDY    56  55  97 CALM      30.04R                  
CONCORD NH     CLEAR     50  49  96 CALM      30.04R                  
MANCHESTER NH  PTCLDY    59  53  80 N5        30.01S                  
NASHUA NH      CLEAR     53  53 100 NW3       30.03R                  
PORTSMOUTH NH  PTCLDY    57  53  88 NW5       30.01S                  
JAFFREY NH     CLEAR     51  48  89 CALM      30.05S                  
KEENE NH       CLEAR     49  49 100 CALM        N/A                   
BURLINGTON VT  PTCLDY    55  51  86 SE5       30.04R                  
MT. WASHINGTON PTCLDY    45  41  87 SE5         N/A                   
$$

NYZ052-076-151100-
EASTERN NEW YORK
  
CITY           SKY/WX    TMP DP  RH WIND       PRES   REMARKS
ALBANY         MOCLDY    58  54  86 CALM      30.02R                  
NEW YORK CITY  MOCLDY    71  55  56 CALM      30.00S                  
$$
 
ANZALL-151100-
MARINE OBSERVATIONS
  
STATION/POSITION TIME  TEMP    WIND        PRES    VSBY  WAVE
                       AIR SEA DIR/SP/G                  HT/PER
                 (UTC) (F)     (DEG/KT/KT) (MB)    (MI)  (FT/S)
BOSTON BUOY      NOT AVBL
BUZZARDS BAY     NOT AVBL
NANTUCKET SOUND  NOT AVBL
MASS BAY-STELLWA NOT AVBL
ISLE OF SHOALS   NOT AVBL
S OF BLOCK IS    NOT AVBL
$$

......................KEY.........................
  SKY/WX - SKY CONDITION/PRESENT WEATHER
  TMP    - TEMPERATURE IN FAHRENHEIT
  DWPT   - DEWPOINT IN FAHRENHEIT
  RH     - RELATIVE HUMIDITY IN PERCENT
  WIND   - DIRECTION AND SPEED IN MPH
  PRES   - MEAN SEA LEVEL PRESSURE IN INCHES OF HG
  WCI    - WIND CHILL INDEX
  VSB    - VISIBILITY IN MILES
  HX     - HEAT INDEX
  TC     - TEMPERATURE IN CELSIUS
  VRB    - VARIABLE WIND DIRECTION
  N/A    - NOT AVAILABLE
  
      

Other recent Regional Weather Roundups

Wed Aug 17, 5:10pm

Wed Aug 17, 4:10pm

Wed Aug 17, 3:10pm

Wed Aug 17, 2:10pm

Wed Aug 17, 1:10pm

Wed Aug 17, 12:10pm

Wed Aug 17, 11:10am

Wed Aug 17, 10:10am

Wed Aug 17, 9:10am

Wed Aug 17, 8:10am

Wed Aug 17, 7:10am

Wed Aug 17, 6:10am

Wed Aug 17, 5:10am

Wed Aug 17, 4:10am

Wed Aug 17, 3:10am

Wed Aug 17, 2:10am

Wed Aug 17, 1:10am

Wed Aug 17, 12:10am

Tue Aug 16, 11:10pm

Tue Aug 16, 10:10pm

Tue Aug 16, 9:10pm

Tue Aug 16, 8:10pm

Tue Aug 16, 7:10pm

Tue Aug 16, 6:10pm

Tue Aug 16, 5:10pm

Tue Aug 16, 4:10pm

Tue Aug 16, 3:10pm

Tue Aug 16, 2:10pm

Tue Aug 16, 1:10pm

Tue Aug 16, 12:10pm

Tue Aug 16, 11:10am

Tue Aug 16, 10:10am

Tue Aug 16, 9:10am

Tue Aug 16, 8:10am

Tue Aug 16, 7:10am

Tue Aug 16, 6:10am

Tue Aug 16, 5:10am

Tue Aug 16, 4:10am

Tue Aug 16, 3:10am

Tue Aug 16, 2:10am

Tue Aug 16, 1:10am

Tue Aug 16, 12:10am

Mon Aug 15, 11:10pm

Mon Aug 15, 10:10pm

Mon Aug 15, 9:10pm

Mon Aug 15, 8:10pm

Mon Aug 15, 7:10pm

Mon Aug 15, 6:10pm

Mon Aug 15, 5:10pm

Mon Aug 15, 4:10pm

Mon Aug 15, 3:10pm

Mon Aug 15, 2:10pm

Mon Aug 15, 1:10pm

Mon Aug 15, 12:10pm

Mon Aug 15, 11:10am

Mon Aug 15, 10:10am

Mon Aug 15, 9:10am

Mon Aug 15, 8:10am

Mon Aug 15, 7:10am

Mon Aug 15, 5:10am

Mon Aug 15, 4:10am

Mon Aug 15, 3:10am

Mon Aug 15, 2:10am

Mon Aug 15, 1:10am

Mon Aug 15, 12:10am

Sun Aug 14, 11:10pm

Sun Aug 14, 10:10pm

Sun Aug 14, 9:10pm

Sun Aug 14, 8:10pm

Sun Aug 14, 7:10pm

Sun Aug 14, 6:10pm

Sun Aug 14, 5:10pm

Sun Aug 14, 4:10pm

Sun Aug 14, 3:10pm

Sun Aug 14, 2:10pm

Sun Aug 14, 1:10pm

Sun Aug 14, 12:10pm

Sun Aug 14, 11:10am

Sun Aug 14, 10:10am

Sun Aug 14, 9:10am

Sun Aug 14, 8:10am

Sun Aug 14, 7:10am

Sun Aug 14, 6:10am

Sun Aug 14, 5:10am

Sun Aug 14, 4:10am

Sun Aug 14, 3:10am

Sun Aug 14, 2:10am

Sun Aug 14, 1:10am

Sun Aug 14, 12:10am

Sat Aug 13, 11:10pm

Sat Aug 13, 10:10pm

Sat Aug 13, 9:10pm

Sat Aug 13, 8:10pm

Sat Aug 13, 7:10pm

Sat Aug 13, 6:10pm

Sat Aug 13, 5:10pm

Sat Aug 13, 4:10pm

Sat Aug 13, 3:10pm

Sat Aug 13, 2:10pm

Sat Aug 13, 1:10pm

Sat Aug 13, 12:10pm

Sat Aug 13, 11:10am

Sat Aug 13, 10:10am

Sat Aug 13, 9:10am

Sat Aug 13, 8:10am

Sat Aug 13, 7:10am

Sat Aug 13, 6:10am

Sat Aug 13, 5:10am

Sat Aug 13, 4:10am

Sat Aug 13, 3:10am

Sat Aug 13, 2:10am

Sat Aug 13, 1:10am

Sat Aug 13, 12:10am

Fri Aug 12, 11:10pm

Fri Aug 12, 10:10pm

Fri Aug 12, 9:10pm

Fri Aug 12, 8:10pm

Fri Aug 12, 7:10pm

Fri Aug 12, 6:10pm

Fri Aug 12, 5:10pm

Fri Aug 12, 4:10pm

Fri Aug 12, 3:10pm

Fri Aug 12, 2:10pm

Fri Aug 12, 1:10pm

Fri Aug 12, 12:10pm

Fri Aug 12, 11:10am

Fri Aug 12, 10:10am

Fri Aug 12, 9:10am

Fri Aug 12, 8:10am

Fri Aug 12, 7:10am

Fri Aug 12, 6:10am

Fri Aug 12, 5:10am

Fri Aug 12, 4:10am

Fri Aug 12, 3:10am

Fri Aug 12, 2:10am

Fri Aug 12, 1:10am

Fri Aug 12, 12:10am

Thu Aug 11, 11:10pm

Thu Aug 11, 10:10pm

Thu Aug 11, 9:10pm

Thu Aug 11, 8:10pm

Thu Aug 11, 7:10pm

Thu Aug 11, 6:10pm

Thu Aug 11, 5:10pm

Thu Aug 11, 4:10pm

Thu Aug 11, 3:10pm

Thu Aug 11, 2:10pm

Thu Aug 11, 1:10pm

Thu Aug 11, 12:10pm

Thu Aug 11, 11:10am

Thu Aug 11, 10:10am

Thu Aug 11, 9:10am

Thu Aug 11, 8:10am

Thu Aug 11, 7:10am

Thu Aug 11, 6:10am

Thu Aug 11, 5:10am

Thu Aug 11, 4:10am

Thu Aug 11, 3:10am

Thu Aug 11, 2:10am

Thu Aug 11, 1:10am

Thu Aug 11, 12:10am

Wed Aug 10, 11:10pm

Wed Aug 10, 10:10pm

Wed Aug 10, 9:10pm

Wed Aug 10, 8:10pm

Wed Aug 10, 7:10pm

Wed Aug 10, 6:10pm

Meta data:

ID: 061accaf-cead-4e0e-9885-57116e909d29
Link: https://api.weather.gov/products/061accaf-cead-4e0e-9885-57116e909d29